FW1310 Weather Reports


time (UTC)temp
C
wind
direction
speed
KPH
gust
KPH
rain 1hr
cm
rain 24hr
cm
rain mn
cm
humidity
%
barometer
mb
20260504202504 27 267 8.0 14.5 0.00 0.00 0.00 56 996.6
20260504202004 27 267 8.0 14.5 0.00 0.00 0.00 57 996.6
20260504201505 27 249 9.7 24.1 0.00 0.00 0.00 56 996.7
20260504201004 27 300 6.4 24.1 0.00 0.00 0.00 57 996.8
20260504200004 27 290 4.8 14.5 0.00 0.00 0.00 58 997.0
20260504195504 27 287 8.0 14.5 0.00 0.00 0.00 57 997.0
20260504195004 27 2 8.0 20.9 0.00 0.00 0.00 56 997.3
20260504194504 27 269 8.0 19.3 0.00 0.00 0.00 56 997.3
20260504194004 27 306 4.8 16.1 0.00 0.00 0.00 58 997.6
20260504193504 26 295 4.8 16.1 0.00 0.00 0.00 58 997.6
20260504192504 26 335 4.8 12.9 0.00 0.00 0.00 59 997.7
20260504191504 26 326 9.7 20.9 0.00 0.00 0.00 60 997.8
20260504191004 26 275 8.0 19.3 0.00 0.00 0.00 59 997.9
20260504190004 26 299 4.8 14.5 0.00 0.00 0.00 60 998.1
20260504185504 25 286 4.8 20.9 0.00 0.00 0.00 61 998.2
20260504185005 25 309 4.8 16.1 0.00 0.00 0.00 61 998.2
20260504184505 26 324 4.8 12.9 0.00 0.00 0.00 60 998.0
20260504184004 26 322 8.0 11.3 0.00 0.00 0.00 60 998.1
20260504183504 26 304 4.8 14.5 0.00 0.00 0.00 61 998.1
20260504183004 25 283 4.8 16.1 0.00 0.00 0.00 61 998.3
20260504182504 25 272 8.0 27.4 0.00 0.00 0.00 62 998.6
20260504181505 25 306 4.8 14.5 0.00 0.00 0.00 62 998.6
20260504181005 25 313 8.0 16.1 0.00 0.00 0.00 63 998.7
20260504180504 25 247 4.8 12.9 0.00 0.00 0.00 63 998.7
20260504180004 24 284 8.0 20.9 0.00 0.00 0.00 64 998.8
20260504175504 24 253 3.2 14.5 0.00 0.00 0.00 64 999.0
20260504174004 24 312 3.2 20.9 0.00 0.00 0.00 63 999.0
20260504173504 23 272 3.2 9.7 0.00 0.00 0.00 64 999.1
20260504173005 23 301 3.2 19.3 0.00 0.00 0.00 66 999.3
20260504172504 23 344 8.0 19.3 0.00 0.00 0.00 65 999.4
20260504172004 23 4 4.8 14.5 0.00 0.00 0.00 67 999.5
20260504171505 22 164 6.4 22.5 0.00 0.00 0.00 68 999.5
20260504171005 22 65 4.8 22.5 0.00 0.00 0.00 68 999.8
20260504170504 22 324 9.7 20.9 0.00 0.00 0.00 68 999.8
20260504151004 21 328 9.7 20.9 0.00 0.00 0.00 69 1000.2
20260504150504 21 255 4.8 16.1 0.00 0.00 0.00 69 1000.2
20260504141004 19 289 4.8 16.1 0.00 0.00 0.00 74 1000.2
20260504140504 19 292 4.8 22.5 0.00 0.00 0.00 74 1000.2
20260504130504 16 266 3.2 4.8 0.00 0.00 0.00 81 1000.3
20260504081504 16 255 8.0 12.9 0.00 0.00 0.00 76 1000.2
20260504081004 16 228 3.2 4.8 0.00 0.00 0.00 76 1000.3
20260504080504 16 250 3.2 16.1 0.00 0.00 0.00 75 1000.6
20260504050005 18 239 3.2 8.0 0.00 0.00 0.00 62 1002.5
20260504045504 18 262 3.2 9.7 0.00 0.00 0.00 61 1002.6
20260504045004 18 253 1.6 4.8 0.00 0.00 0.00 60 1002.5
20260504044504 17 253 3.2 4.8 0.00 0.00 0.00 60 1002.6
20260504043004 18 276 0.0 3.2 0.00 0.00 0.00 58 1002.8
20260504042504 18 268 0.0 4.8 0.00 0.00 0.00 58 1002.7
20260504040504 18 248 1.6 3.2 0.00 0.00 0.00 55 1002.8
20260504040004 18 254 0.0 1.6 0.00 0.00 0.00 56 1002.7
20260504035004 18 267 0.0 0.0 0.00 0.00 0.00 56 1002.7
20260504034505 18 265 0.0 0.0 0.00 0.00 0.00 56 1002.7
20260504034005 18 257 0.0 0.0 0.00 0.00 0.00 55 1002.8
20260504033004 18 262 0.0 0.0 0.00 0.00 0.00 54 1002.9
20260504032504 18 262 0.0 0.0 0.00 0.00 0.00 55 1002.8
20260504032004 18 246 0.0 0.0 0.00 0.00 0.00 54 1002.6
20260504031504 18 258 0.0 0.0 0.00 0.00 0.00 54 1002.8
20260504030504 19 273 0.0 1.6 0.00 0.00 0.00 53 1002.6
20260504030004 19 284 0.0 1.6 0.00 0.00 0.00 52 1002.8
20260504025504 19 334 0.0 3.2 0.00 0.00 0.00 52 1002.8
20260504025005 19 300 0.0 3.2 0.00 0.00 0.00 52 1002.8
20260504024004 19 257 0.0 0.0 0.00 0.00 0.00 52 1002.9
20260504023504 19 260 0.0 0.0 0.00 0.00 0.00 51 1002.9
20260504023005 20 250 0.0 1.6 0.00 0.00 0.00 51 1002.9
20260504022004 20 238 0.0 0.0 0.00 0.00 0.00 51 1002.7
20260504021504 20 262 0.0 0.0 0.00 0.00 0.00 50 1002.8
20260504021004 20 257 0.0 0.0 0.00 0.00 0.00 50 1002.8
20260504020004 20 262 0.0 0.0 0.00 0.00 0.00 48 1002.6
20260504015504 20 242 0.0 0.0 0.00 0.00 0.00 48 1002.6
20260504015005 21 241 0.0 0.0 0.00 0.00 0.00 46 1002.4
20260504014005 21 254 1.6 3.2 0.00 0.00 0.00 45 1002.4
20260504013005 21 230 1.6 4.8 0.00 0.00 0.00 44 1002.1
20260504010504 21 275 1.6 3.2 0.00 0.00 0.00 43 1002.3
20260504010004 22 255 1.6 4.8 0.00 0.00 0.00 43 1002.2
20260504004504 22 232 1.6 9.7 0.00 0.00 0.00 41 1002.2
20260504004004 22 275 3.2 9.7 0.00 0.00 0.00 41 1002.2
20260504003504 22 290 3.2 8.0 0.00 0.00 0.00 40 1002.2
20260504003004 23 189 1.6 8.0 0.00 0.00 0.00 42 1002.4
20260504002504 23 331 1.6 9.7 0.00 0.00 0.00 41 1002.4
20260504002004 23 289 4.8 9.7 0.00 0.00 0.00 40 1002.4
20260504001505 23 258 3.2 9.7 0.00 0.00 0.00 40 1002.4
20260504001005 23 293 1.6 9.7 0.00 0.00 0.00 40 1002.5
20260504000505 23 267 1.6 4.8 0.00 0.00 0.00 40 1002.6
20260503235504 23 259 3.2 9.7 0.00 0.00 0.00 39 1002.8
20260503235004 23 302 3.2 4.8 0.00 0.00 0.00 38 1002.7
20260503234504 24 263 4.8 16.1 0.00 0.00 0.00 38 1002.6
20260503233505 24 234 4.8 12.9 0.00 0.00 0.00 38 1002.9
20260503233005 24 253 6.4 12.9 0.00 0.00 0.00 37 1002.8
20260503232505 24 232 4.8 8.0 0.00 0.00 0.00 38 1002.8
20260503231005 24 240 6.4 11.3 0.00 0.00 0.00 35 1002.8
20260503230505 25 258 4.8 8.0 0.00 0.00 0.00 35 1002.5
20260503230004 25 284 4.8 8.0 0.00 0.00 0.00 35 1002.7
20260503225505 25 251 4.8 11.3 0.00 0.00 0.00 35 1002.8
20260503225005 25 214 6.4 11.3 0.00 0.00 0.00 34 1002.8
20260503224504 26 222 8.0 11.3 0.00 0.00 0.00 33 1002.8
20260503224005 26 266 4.8 11.3 0.00 0.00 0.00 34 1003.0
20260503223504 25 238 6.4 11.3 0.00 0.00 0.00 33 1003.1
20260503222505 26 243 6.4 19.3 0.00 0.00 0.00 34 1003.2
20260503221504 25 247 3.2 9.7 0.00 0.00 0.00 34 1003.2
20260503221004 25 282 8.0 16.1 0.00 0.00 0.00 33 1003.4
20260503220504 26 245 11.3 16.1 0.00 0.00 0.00 33 1003.3
20260503220004 26 248 4.8 14.5 0.00 0.00 0.00 34 1003.5
20260503215504 26 256 3.2 12.9 0.00 0.00 0.00 34 1003.5
20260503215004 26 288 6.4 12.9 0.00 0.00 0.00 35 1003.5
20260503214504 25 284 4.8 9.7 0.00 0.00 0.00 32 1003.7
20260503214004 26 276 3.2 16.1 0.00 0.00 0.00 33 1003.8
20260503212504 26 260 4.8 11.3 0.00 0.00 0.00 33 1004.1
20260503211504 25 238 4.8 19.3 0.00 0.00 0.00 32 1004.2
20260503211005 25 279 6.4 16.1 0.00 0.00 0.00 33 1004.2
20260503210505 25 229 4.8 14.5 0.00 0.00 0.00 33 1004.3
20260503205505 26 267 8.0 12.9 0.00 0.00 0.00 33 1004.5
20260503205004 26 251 8.0 11.3 0.00 0.00 0.00 33 1004.6
20260503204504 26 268 4.8 16.1 0.00 0.00 0.00 34 1004.7
20260503204005 26 286 9.7 19.3 0.00 0.00 0.00 32 1004.7
20260503203504 26 289 3.2 14.5 0.00 0.00 0.00 34 1004.8
20260503203004 26 244 6.4 12.9 0.00 0.00 0.00 36 1004.8